When you browse on this site, cookies collect data to enhance your experience and personalize the content and advertising you see.
Visit our Privacy Policy to learn more. By continuing to use the site, you agree to this use of cookies and data.
  • In Schweiz
  • Länderverzeichnis
  • Für 7 Tage
  • Wassertemperatur
  • Wetterkarte
  • Widgets
  • user-avatar
    Anmelden

    Stündliche Wetter Beverly

    Heute, 15 Dezember, Sonntag

    Zeit Temperatur Niederschläge Wind Luftdruck Luftfeuchtigkeit
    00:00 +2°C° 0 mm 5 m/S 735 mmHg 91%
    01:00 +2°C° 0.7 mm 6 m/S 735 mmHg 92%
    02:00 +2°C° 0.7 mm 6 m/S 735 mmHg 92%
    03:00 +3°C° 0.7 mm 7 m/S 734 mmHg 93%
    04:00 +2°C° 0.8 mm 7 m/S 735 mmHg 87%
    05:00 +1°C° 0.8 mm 8 m/S 736 mmHg 81%
    06:00 +1°C° 0 mm 8 m/S 737 mmHg 84%
    07:00 +2°C° 0 mm 7 m/S 738 mmHg 83%
    08:00 0°C° 0 mm 7 m/S 739 mmHg 82%
    09:00 0°C° 0 mm 7 m/S 740 mmHg 81%
    10:00 +2°C° 0 mm 6 m/S 741 mmHg 78%
    11:00 +3°C° 0 mm 6 m/S 741 mmHg 75%
    12:00 +4°C° 0 mm 6 m/S 742 mmHg 74%
    13:00 +3°C° 0 mm 6 m/S 743 mmHg 74%
    14:00 +3°C° 0 mm 6 m/S 743 mmHg 75%
    15:00 +3°C° 0 mm 6 m/S 743 mmHg 75%
    16:00 +3°C° 0 mm 6 m/S 743 mmHg 78%
    17:00 +2°C° 0 mm 7 m/S 744 mmHg 81%
    18:00 +2°C° 0 mm 7 m/S 744 mmHg 84%
    19:00 +3°C° 0 mm 7 m/S 744 mmHg 82%
    20:00 +3°C° 0 mm 7 m/S 744 mmHg 80%
    21:00 +3°C° 0 mm 7 m/S 744 mmHg 79%
    22:00 +3°C° 0 mm 7 m/S 744 mmHg 81%
    23:00 +3°C° 0 mm 7 m/S 745 mmHg 82%

    Morgen, 16 Dezember, Montag

    Zeit Temperatur Niederschläge Wind Luftdruck Luftfeuchtigkeit
    00:00 +3°C° 0 mm 7 m/S 745 mmHg 84%
    01:00 +3°C° 0.1 mm 7 m/S 745 mmHg 86%
    02:00 +3°C° 0.1 mm 7 m/S 745 mmHg 87%
    03:00 +3°C° 0.1 mm 7 m/S 745 mmHg 88%
    04:00 +2°C° 0 mm 7 m/S 744 mmHg 86%
    05:00 +2°C° 0 mm 6 m/S 744 mmHg 84%
    06:00 +2°C° 0 mm 6 m/S 744 mmHg 82%
    07:00 +2°C° 0 mm 7 m/S 745 mmHg 81%
    08:00 +2°C° 0 mm 7 m/S 746 mmHg 79%
    09:00 +2°C° 0 mm 7 m/S 746 mmHg 78%
    10:00 +3°C° 0 mm 7 m/S 747 mmHg 76%
    11:00 +3°C° 0 mm 6 m/S 747 mmHg 75%
    12:00 +3°C° 0 mm 6 m/S 748 mmHg 74%
    13:00 +3°C° 0 mm 5 m/S 748 mmHg 75%
    14:00 +4°C° 0 mm 4 m/S 748 mmHg 77%
    15:00 +3°C° 0 mm 3 m/S 748 mmHg 78%
    16:00 +3°C° 0 mm 4 m/S 748 mmHg 82%
    17:00 +1°C° 0 mm 4 m/S 748 mmHg 85%
    18:00 +1°C° 0 mm 4 m/S 749 mmHg 88%
    19:00 +2°C° 0 mm 3 m/S 749 mmHg 89%
    20:00 +2°C° 0 mm 3 m/S 749 mmHg 90%
    21:00 +1°C° 0 mm 3 m/S 749 mmHg 90%
    22:00 +3°C° 0 mm 2 m/S 749 mmHg 90%
    23:00 +3°C° 0 mm 2 m/S 749 mmHg 89%

    übermorgen, 17 Dezember, Dienstag

    Zeit Temperatur Niederschläge Wind Luftdruck Luftfeuchtigkeit
    00:00 +3°C° 0 mm 2 m/S 749 mmHg 89%
    01:00 +4°C° 0 mm 1 m/S 749 mmHg 88%
    02:00 +4°C° 0 mm 1 m/S 749 mmHg 87%
    03:00 +4°C° 0 mm 1 m/S 749 mmHg 87%
    04:00 +4°C° 0 mm 1 m/S 749 mmHg 86%
    05:00 +4°C° 0 mm 1 m/S 748 mmHg 85%
    06:00 +4°C° 0 mm 1 m/S 748 mmHg 84%
    07:00 +3°C° 0 mm 0 m/S 748 mmHg 84%
    08:00 +3°C° 0 mm 0 m/S 748 mmHg 83%
    09:00 +4°C° 0 mm 0 m/S 748 mmHg 83%
    10:00 +5°C° 0 mm 1 m/S 748 mmHg 82%
    11:00 +6°C° 0 mm 1 m/S 748 mmHg 80%
    12:00 +6°C° 0 mm 1 m/S 748 mmHg 79%
    13:00 +6°C° 0 mm 1 m/S 748 mmHg 80%
    14:00 +6°C° 0 mm 1 m/S 748 mmHg 81%
    15:00 +5°C° 0 mm 1 m/S 748 mmHg 81%
    16:00 +5°C° 0 mm 1 m/S 748 mmHg 82%
    17:00 +3°C° 0 mm 2 m/S 748 mmHg 83%
    18:00 +3°C° 0 mm 2 m/S 748 mmHg 84%
    19:00 +3°C° 0 mm 2 m/S 749 mmHg 85%
    20:00 +2°C° 0 mm 2 m/S 749 mmHg 85%
    21:00 +1°C° 0 mm 3 m/S 750 mmHg 85%
    22:00 +1°C° 0 mm 3 m/S 750 mmHg 86%
    23:00 +1°C° 0 mm 3 m/S 750 mmHg 87%

    18 Dezember, Mittwoch

    Zeit Temperatur Niederschläge Wind Luftdruck Luftfeuchtigkeit
    00:00 0°C° 0 mm 3 m/S 751 mmHg 87%
    01:00 0°C° 0 mm 3 m/S 751 mmHg 88%
    02:00 0°C° 0 mm 3 m/S 751 mmHg 89%
    03:00 0°C° 0 mm 3 m/S 752 mmHg 90%
    04:00 0°C° 0 mm 3 m/S 752 mmHg 90%
    05:00 0°C° 0 mm 3 m/S 752 mmHg 91%
    06:00 0°C° 0 mm 3 m/S 753 mmHg 91%
    07:00 0°C° 0 mm 3 m/S 753 mmHg 91%
    08:00 +1°C° 0 mm 2 m/S 754 mmHg 90%
    09:00 +1°C° 0 mm 2 m/S 754 mmHg 90%
    10:00 +2°C° 0 mm 2 m/S 754 mmHg 86%
    11:00 +3°C° 0 mm 2 m/S 754 mmHg 83%
    12:00 +3°C° 0 mm 3 m/S 754 mmHg 79%
    13:00 +3°C° 0 mm 2 m/S 754 mmHg 81%
    14:00 +3°C° 0 mm 2 m/S 754 mmHg 84%
    15:00 +2°C° 0 mm 2 m/S 754 mmHg 86%
    16:00 +1°C° 0 mm 3 m/S 753 mmHg 86%
    17:00 0°C° 0 mm 3 m/S 753 mmHg 86%
    18:00 -1°C° 0 mm 4 m/S 753 mmHg 86%
    19:00 -1°C° 0 mm 4 m/S 753 mmHg 88%
    20:00 0°C° 0 mm 5 m/S 753 mmHg 89%
    21:00 0°C° 0 mm 5 m/S 752 mmHg 91%
    22:00 +1°C° 0 mm 6 m/S 752 mmHg 90%
    23:00 +1°C° 0 mm 6 m/S 751 mmHg 89%

    19 Dezember, Donnerstag

    Zeit Temperatur Niederschläge Wind Luftdruck Luftfeuchtigkeit
    00:00 +2°C° 0 mm 7 m/S 750 mmHg 89%
    01:00 +3°C° 0 mm 7 m/S 749 mmHg 89%
    02:00 +2°C° 0 mm 8 m/S 748 mmHg 88%
    03:00 +3°C° 0 mm 9 m/S 748 mmHg 88%
    04:00 +5°C° 0.1 mm 9 m/S 746 mmHg 89%
    05:00 +5°C° 0.1 mm 9 m/S 745 mmHg 90%
    06:00 +5°C° 0.1 mm 10 m/S 744 mmHg 92%
    07:00 +6°C° 0.9 mm 10 m/S 743 mmHg 92%
    08:00 +6°C° 0.9 mm 10 m/S 742 mmHg 92%
    09:00 +7°C° 0.9 mm 10 m/S 742 mmHg 92%
    10:00 +7°C° 0 mm 9 m/S 742 mmHg 87%
    11:00 +7°C° 0 mm 9 m/S 742 mmHg 82%
    12:00 +7°C° 0 mm 8 m/S 743 mmHg 78%
    13:00 +8°C° 0 mm 7 m/S 743 mmHg 80%
    14:00 +7°C° 0 mm 5 m/S 744 mmHg 83%
    15:00 +7°C° 0 mm 4 m/S 744 mmHg 86%
    16:00 +6°C° 0 mm 4 m/S 744 mmHg 88%
    17:00 +5°C° 0 mm 3 m/S 745 mmHg 90%
    18:00 +5°C° 0 mm 3 m/S 745 mmHg 92%
    19:00 +4°C° 0 mm 3 m/S 745 mmHg 93%
    20:00 +4°C° 0 mm 3 m/S 745 mmHg 94%
    21:00 +4°C° 0 mm 3 m/S 745 mmHg 94%
    22:00 +4°C° 0 mm 3 m/S 745 mmHg 95%
    23:00 +4°C° 0 mm 3 m/S 745 mmHg 95%

    20 Dezember, Freitag

    Zeit Temperatur Niederschläge Wind Luftdruck Luftfeuchtigkeit
    00:00 +4°C° 0 mm 3 m/S 745 mmHg 95%
    01:00 +3°C° 0 mm 3 m/S 744 mmHg 96%
    02:00 +4°C° 0 mm 2 m/S 744 mmHg 96%
    03:00 +4°C° 0 mm 2 m/S 744 mmHg 96%
    04:00 +4°C° 0 mm 2 m/S 744 mmHg 96%
    05:00 +4°C° 0 mm 2 m/S 743 mmHg 96%
    06:00 +4°C° 0 mm 2 m/S 743 mmHg 96%
    07:00 +4°C° 0 mm 2 m/S 743 mmHg 96%
    08:00 +4°C° 0 mm 2 m/S 743 mmHg 96%
    09:00 +4°C° 0 mm 2 m/S 743 mmHg 96%
    10:00 +5°C° 0 mm 2 m/S 743 mmHg 95%
    11:00 +5°C° 0 mm 2 m/S 743 mmHg 94%
    12:00 +6°C° 0 mm 2 m/S 742 mmHg 93%
    13:00 +7°C° 0 mm 1 m/S 742 mmHg 94%
    14:00 +7°C° 0 mm 1 m/S 742 mmHg 95%
    15:00 +7°C° 0 mm 1 m/S 742 mmHg 95%
    16:00 +6°C° 0 mm 2 m/S 742 mmHg 95%
    17:00 +6°C° 0 mm 2 m/S 742 mmHg 95%
    18:00 +6°C° 0 mm 2 m/S 742 mmHg 95%
    19:00 +6°C° 0 mm 2 m/S 742 mmHg 95%
    20:00 +6°C° 0 mm 2 m/S 743 mmHg 94%
    21:00 +6°C° 0 mm 2 m/S 743 mmHg 94%
    22:00 +6°C° 0 mm 2 m/S 743 mmHg 94%
    23:00 +5°C° 0 mm 2 m/S 743 mmHg 94%
    Mehr zeigen